Regional Weather Roundup
Issued by NWS

Home | Current Version | Previous Version | Text Only | Print | Product List | Glossary Off
Versions: 1 2 3 4 5 6 7 8 9 10 11 12 13 14 15 16 17 18 19 20 21 22 23 24 25 26 27 28 29 30 31 32 33 34 35 36 37 38 39 40 41 42 43 44 45 46 47 48 49 50

000
ASUS43 KMPX 030601
RWRMN
WEATHER ROUNDUP FOR MINNESOTA
NATIONAL WEATHER SERVICE TWIN CITIES/CHANHASSEN MN
1200 AM CST TUE MAR 03 2015


NOTE: "FAIR" INDICATES FEW OR NO CLOUDS BELOW 12,000 FEET WITH NO
SIGNIFICANT WEATHER AND/OR OBSTRUCTIONS TO VISIBILITY. N/A MEANS
CURRENT SKY AND/OR WEATHER CONDITIONS ARE NOT AVAILABLE.

MNZ060>063-068>070-030700-
   Twin Cities Metro

CITY           SKY/WX    TMP DP  RH WIND       PRES   REMARKS
TWIN CITIES    CLOUDY    22  11  62 SE7       30.05F WCI  13
6HR MIN TEMP:  21; 6HR MAX TEMP:  23;

ST PAUL        CLOUDY    22  12  65 SE10      30.07F WCI  11
CRYSTAL        CLOUDY    23  13  65 SE10      30.03F WCI  12
BLAINE         CLOUDY    23  16  74 S10       30.03F WCI  12
LAKEVILLE      FAIR      19  12  73 SE6       30.05F WCI  11
EDEN PRAIRIE   CLOUDY    22  12  65 SE8       30.02F WCI  12
6HR MIN TEMP:  21; 6HR MAX TEMP:  23;

SOUTH ST PAUL  CLOUDY    22  12  65 SE6       30.06F WCI  15
LAKE ELMO      FLURRIES  23  14  68 S8        30.06F WCI  14
$$
MNZ001>005-007-008-013>017-022>024-027-028-030700-
   Northwest Minnesota

CITY           SKY/WX    TMP DP  RH WIND       PRES   REMARKS
BEMIDJI        CLOUDY    23  14  69 S15G23    29.80F WCI  10
HALLOCK        FAIR      19  16  86 S16       29.72F WCI   5
ROSEAU         FAIR      25  18  74 S20       29.72F WCI  11
WARROAD        FAIR      25  16  68 S10G17    29.72F WCI  15
THIEF RVR FALL FAIR      25  18  74 S13       29.75F WCI  13
CROOKSTON      FAIR      25  19  80 S22       29.77F WCI  10
FOSSTON        FAIR      23  18  80 S20       29.76F WCI   8
DETROIT LAKES  FAIR      27  21  80 S18       29.81F WCI  13
MOORHEAD       FAIR      27  21  80 S22G29    29.80F WCI  12
PARK RAPIDS    CLOUDY    23  14  68 S14       29.84F WCI  11
MAHNOMEN       CLOUDY    25  18  76 S18G28    29.78F WCI  11
$$
MNZ006-009>011-018-025>026-030700-
   North Central Minnesota

CITY           SKY/WX    TMP DP  RH WIND       PRES   REMARKS
BAUDETTE       CLOUDY    24  12  60 S15G24    29.74F WCI  11
FLAG ISLAND    CLOUDY    21  16  79 S14       29.71F WCI   8
INTL FALLS     CLOUDY    24   8  50 S9G20     29.81F WCI  14
6HR MIN TEMP:  21; 6HR MAX TEMP:  25;

WASKISH        CLOUDY    25  14  63 CALM      29.77F
BIG FORK       CLOUDY    23  10  58 S15       29.84F WCI  10
LONGVILLE      CLOUDY    21  10  63 S13G20    29.88F WCI   9
GRAND RAPIDS   CLOUDY    21   9  58 S17G23    29.87F WCI   7
CRANE LAKE     CLOUDY    21   7  53 S8        29.88F WCI  12
ORR            CLOUDY    21   5  49 S13       29.83F WCI   9
COOK           CLOUDY    21   7  53 S8        29.88F WCI  12
WALKER         CLOUDY    23  12  64 S10G21    29.85F WCI  12
$$
MNZ012-019>021-037-030700-
   Northeast Minnesota

CITY           SKY/WX    TMP DP  RH WIND       PRES   REMARKS
DULUTH         CLOUDY    20   4  50 S8        29.95F WCI  10
6HR MIN TEMP:  20; 6HR MAX TEMP:  24;

ELY            CLOUDY    19   5  53 S10G18    29.90F WCI   8
HIBBING        CLOUDY    21   5  50 S9        29.90F WCI  11
EVELETH        FAIR      21   9  58 S9        29.92F WCI  11
DULUTH HARBOR  CLOUDY    23   7  50 SW6       30.03F WCI  16
TWO HARBORS    CLOUDY    23  10  58 SW3       29.97F
SILVER BAY     CLOUDY    21   9  58 S7        29.97F WCI  13
GRAND MARAIS     N/A     27  15  61 SW22      30.02F WCI  13
G MARAIS ARPRT CLOUDY    18   7  62 S9G17     29.94F WCI   6
$$
MNZ029>031-032-039>041-046>048-054>057-064-030700-
   West Central Minnesota

CITY           SKY/WX    TMP DP  RH WIND       PRES   REMARKS
FERGUS FALLS   CLOUDY    25  19  80 S21G26    29.86F WCI  10
WHEATON        CLOUDY    25  21  86 SE20      29.84F WCI  11
MORRIS         CLOUDY    25  21  86 S20       29.86F WCI  11
ALEXANDRIA     CLOUDY    23  18  81 S16G25    29.88F WCI  10
ELBOW LAKE     CLOUDY    24  20  87 S24       29.84F WCI   8
WADENA         CLOUDY    21  16  79 S15G24    29.86F WCI   8
GLENWOOD       FAIR      23  19  86 S17       29.90F WCI   9
APPLETON       MOCLDY    27  21  80 S14G23    29.88F WCI  15
BENSON         FLURRIES  25  19  80 S16       29.89F WCI  12
ORTONVILLE     MOCLDY    25  21  86 SE14G22   29.85F WCI  13
MADISON        FLURRIES  27  21  80 SE17G26   29.88F WCI  14
WILLMAR        LGT SNOW  25  19  80 SE16      29.94F WCI  12
$$
MNZ033>034-036-042>043-049>051-058-059-030700-
   Central Minnesota

CITY           SKY/WX    TMP DP  RH WIND       PRES   REMARKS
ST CLOUD       CLOUDY    22  12  65 S13G22    29.96F WCI  10
6HR MIN TEMP:  21; 6HR MAX TEMP:  24;

SAUK CENTRE    CLOUDY    22  17  80 S13G18    29.92F WCI  10
PAYNESVILLE    CLOUDY    20  15  81 SE12G20   29.95F WCI   8
AITKIN         CLOUDY    25  10  54 S17       29.91F WCI  11
PINE RIVER     CLOUDY    21  12  68 S9        29.92F WCI  11
BRAINERD       CLOUDY    21  11  65 S17G25    29.92F WCI   7
STAPLES        CLOUDY    21  16  79 S16       29.89F WCI   7
LITTLE FALLS   CLOUDY    23  12  63 S8G16     29.95F WCI  14
LITCHFIELD     FAIR      23  16  74 SE7G17    29.96F WCI  15
BUFFALO        CLOUDY    22  13  67 SE9       30.01F WCI  12
MAPLE LAKE     CLOUDY    23  16  74 SE7       29.99F WCI  15
$$
MNZ037-044-045-052-053-030700-
   East Central Minnesota

CITY           SKY/WX    TMP DP  RH WIND       PRES   REMARKS
PRINCETON      CLOUDY    23  12  63 SE13      29.99F WCI  11
MORA           MOCLDY    21  10  63 S9        30.02F WCI  11
RUSH CITY      CLOUDY    21  10  64 SE9       30.03F WCI  10
MOOSE LAKE     CLOUDY    21   9  58 CALM      29.97F
HINCKLEY       CLOUDY    21  10  63 S7        30.01F WCI  13
CLOQUET        CLOUDY    19   5  53 S7        29.96F WCI  10
MCGREGOR       CLOUDY    23  10  58 S10       29.94F WCI  12
$$
MNZ071>073-080-081-089-090-097-098-030700-
   Southwest Minnesota

CITY           SKY/WX    TMP DP  RH WIND       PRES   REMARKS
MONTEVIDEO     CLOUDY    25  21  86 S14       29.91F WCI  13
GRANITE FALLS  FLURRIES  25  21  85 SE15G22   29.93F WCI  12
CANBY          CLOUDY    27  22  82 SE12      29.87F WCI  17
MARSHALL       MOCLDY    25  18  74 S15       29.90F WCI  12
REDWOOD FALLS  FLURRIES  24  18  77 SE15      29.95F WCI  11
OLIVIA         LGT SNOW  21  19  93 SE15      29.94F WCI   8
PIPESTONE      CLOUDY    27  19  74 S17G24    29.84F WCI  14
WINDOM         CLOUDY    23  19  86 SE12      29.92F WCI  12
WORTHINGTON    CLOUDY    25  18  74 S10G20    29.91F WCI  15
JACKSON        CLOUDY    25  21  86 SE12      29.93F WCI  14
TRACY          CLOUDY    26  21  79 S12       29.90F WCI  16
SLAYTON        CLOUDY    25  19  77 SE16      29.89F WCI  12
$$
MNZ065>067-074>077-082>085-091>093-030700-
   South Central Minnesota

CITY           SKY/WX    TMP DP  RH WIND       PRES   REMARKS
MANKATO        CLOUDY    21  12  68 SE12      30.00F WCI   9
NEW ULM        CLOUDY    21  16  79 SE8       29.98F WCI  12
ST JAMES       CLOUDY    25  19  80 SE13      29.98F WCI  13
FAIRMONT       CLOUDY    23  16  74 SE14      29.96F WCI  11
GLENCOE        CLOUDY    23  17  77 SE8       30.00F WCI  14
FARIBAULT      CLOUDY    21  12  68 SE7       30.03F WCI  13
OWATONNA       CLOUDY    21  12  68 SE13      30.01F WCI   9
WASECA         CLOUDY    21  14  73 SE13G20   30.04F WCI   9
ALBERT LEA     CLOUDY    21  16  79 SE10      30.01F WCI  10
$$
MNZ078>079-086>088-094>096-030700-
   Southeast Minnesota

CITY           SKY/WX    TMP DP  RH WIND       PRES   REMARKS
ROCHESTER      CLOUDY    20  13  74 SE12      30.04F WCI   8
6HR MIN TEMP:  19; 6HR MAX TEMP:  20;

RED WING       CLOUDY    23   7  50 SE7       30.08F WCI  15
STANTON        FAIR      23  12  62 S8        30.03F WCI  14
DODGE CENTER   CLOUDY    21  16  79 SE10      30.02F WCI  10
WINONA         CLOUDY    27  14  59 SE6       30.12F WCI  20
AUSTIN         CLOUDY    21  16  79 SE8       30.03F WCI  12
PRESTON        CLOUDY    21  12  69 SE6       30.06F WCI  13
$$
ABBREVIATIONS USED IN REMARKS
   TC - TEMPERATURES IN CELSIUS
  WCI - WIND CHILL INDEX
   HX - HEAT INDEX
  VSB - VISIBILITY
$$


USA.gov is the U.S. government's official web portal to all federal, state and local government web resources and services.